Trochia

operational
NORAD ID: 33313 Int'l Des: 2008-040 Owner: REYE Country: D
LEOCIRCULARRETROGRADESSO

About Trochia

Description loading...

Live Position

Loading 3D Globe...

Upcoming Passes

Altitude History

Altitude vs Time

uPlot chart will show altitude changes over time

Two-Line Element Set

1 33313U 08040B 26062.04243219 .00001861 00000-0 14547-3 0 9996
2 33313 97.3957 85.0928 0015248 106.4901 253.8001 15.02151376949561
Epoch: Mar 3, 2026 • Age: 26 hours

Current Status

Altitude 557.2 km
Velocity 7.59 km/s
Sub-Earth Point 35.84°N, 85.04°E
Launch Date Aug 29, 2008
Age 17.5 years
Type other

Technical Details

Classification Payload
Mass 152.00 kg
Dry Mass 140.00 kg
Total Mass 152.00 kg
Length 1.00 m
Diameter 0.80 m
Span 1.00 m
Shape Hept Cyl
Manufacturer SSTL
Bus Type SSTL-150
Phase Status In Orbit
Owner/State REYE/D

Large Constellations

Loading constellations...